Location: Meriden
(44.0740°N, 93.3870°W)
Time: 16:31:15
(UTC-05:00)

Amateur Radio Satellites - All Passes

Search period start: 17 August 2017 16:01
Search period end: 18 August 2017 16:01
Location: Meriden, 44.0740°N, 93.3870°W

Satellite Date Start Highest point End Downlink Frequencies (MHz)
Time Altitude Azimuth
UKube-1 17 Aug 16:29:46 16:32:02 14° 299° (WNW) 16:34:19 .
DOVE 4 17 Aug 16:45:18 16:49:34 25° 65° (ENE) 16:53:47 437.250
Tancredo 1 17 Aug 16:46:54 16:49:46 58° 27° (NNE) 16:52:39 437.200
ISS 17 Aug 16:50:13 16:53:09 30° 17° (NNE) 16:56:05 437.550
BEESAT 3 17 Aug 16:51:00 16:52:44 13° 251° (WSW) 16:54:26 437.485
BEESAT 2 17 Aug 16:54:05 16:57:44 33° 244° (WSW) 17:01:20 435.950
AO-7 17 Aug 16:57:50 17:05:18 35° 263° (W) 17:12:50 .
RS-15 17 Aug 17:00:56 17:11:03 28° 356° (N) 17:20:58 29.354- 29.394
nSIGHT-1 17 Aug 17:03:34 17:06:35 34° 20° (NNE) 17:09:36 .
BEESAT 17 Aug 17:03:47 17:08:25 53° 289° (WNW) 17:13:03 436.000
LilacSat-2 17 Aug 17:16:17 17:18:00 13° 63° (ENE) 17:19:44 437.200
ITAMSAT 1 17 Aug 17:17:24 17:20:45 17° 269° (W) 17:24:09 435.822/435.867
CUTE-I 17 Aug 17:18:47 17:22:27 19° 60° (ENE) 17:26:08 437.470
MOZHAYETS 4 17 Aug 17:22:00 17:26:16 39° 290° (WNW) 17:30:33
XW-2D 17 Aug 17:24:48 17:27:02 15° 65° (ENE) 17:29:17 145.860 - 145.880
CUBESAT XI-V 17 Aug 17:31:09 17:35:50 57° 100° (E) 17:40:27 437.345
YUBILEINY 17 Aug 17:31:34 17:40:22 73° 281° (W) 17:49:09 435.215
XW-2B 17 Aug 17:35:12 17:37:53 19° 66° (ENE) 17:40:36 145.730 - 145.750
ITUPSAT 1 17 Aug 17:35:56 17:39:59 28° 294° (WNW) 17:44:02 437.325
NUDT-PHONESAT 17 Aug 17:46:02 17:48:37 18° 67° (ENE) 17:51:12 437.300
XW-2C 17 Aug 17:53:20 17:56:38 30° 70° (ENE) 17:59:58 145.795 - 145.815
KKS-1 17 Aug 18:00:45 18:05:06 51° 100° (E) 18:09:24 437.445
XW-2F 17 Aug 18:08:24 18:11:57 43° 72° (ENE) 18:15:32 145.980 - 146.000
DOVE 4 17 Aug 18:21:51 18:26:57 47° 262° (W) 18:32:01 437.250
Tancredo 1 17 Aug 18:22:47 18:24:44 17° 225° (SW) 18:26:41 437.200
ISS 17 Aug 18:26:35 18:29:49 61° 215° (SW) 18:33:01 437.550
CUTE 1.7 + AOD 2 17 Aug 18:38:29 18:41:37 21° 66° (ENE) 18:44:46 437.475
HO-68 17 Aug 18:39:48 18:46:23 41° 63° (ENE) 18:52:58 435.675
nSIGHT-1 17 Aug 18:39:56 18:43:02 43° 218° (SW) 18:46:06 .
KAITUO 1B 17 Aug 18:39:56 18:43:38 85° 76° (ENE) 18:47:23 145.475/437.950
LilacSat-2 17 Aug 18:48:09 18:51:50 52° 261° (W) 18:55:34 437.200
STARS 17 Aug 18:50:04 18:54:27 72° 103° (ESE) 18:58:46 437.465
CUTE-I 17 Aug 18:56:38 19:01:58 66° 258° (WSW) 19:07:20 437.470
XW-2D 17 Aug 18:57:20 19:00:53 41° 262° (W) 19:04:28 145.860 - 145.880
XW-2B 17 Aug 19:08:28 19:11:51 32° 263° (W) 19:15:17 145.730 - 145.750
CUBESAT XI-V 17 Aug 19:09:37 19:12:45 18° 298° (WNW) 19:15:51 437.345
RS-15 17 Aug 19:16:55 19:28:11 39° 30° (NNE) 19:38:54 29.354- 29.394
NUDT-PHONESAT 17 Aug 19:19:00 19:22:16 31° 263° (W) 19:25:37 437.300
O/OREOS (USA 219) 17 Aug 19:28:01 19:31:26 21° 53° (NE) 19:34:51 437.305
XW-2C 17 Aug 19:28:07 19:30:52 19° 267° (W) 19:33:39 145.795 - 145.815
SEEDS 17 Aug 19:32:32 19:36:34 47° 72° (ENE) 19:40:39 437.485
YUBILEINY 17 Aug 19:33:46 19:38:55 16° 304° (WNW) 19:44:06 435.215
KKS-1 17 Aug 19:38:19 19:41:16 18° 298° (WNW) 19:44:13 437.445
XW-2F 17 Aug 19:44:21 19:46:19 14° 269° (W) 19:48:16 145.980 - 146.000
CUBEBUG 2 17 Aug 19:45:25 19:49:38 55° 74° (ENE) 19:53:47 437.445
XW-2A 17 Aug 19:45:42 19:48:57 53° 74° (ENE) 19:52:14 145.665 - 145.685
UWE-3 17 Aug 19:46:30 19:50:18 33° 70° (ENE) 19:54:02 435.000/436.395/437.385
STRAND 1 17 Aug 19:48:43 19:52:42 23° 93° (E) 19:56:39 437.568
Oscar 11 17 Aug 20:11:59 20:15:27 24° 67° (ENE) 20:18:56 .
CUTE 1.7 + AOD 2 17 Aug 20:13:15 20:17:12 38° 263° (W) 20:21:11 437.475
HO-68 17 Aug 20:27:22 20:34:04 42° 262° (W) 20:40:48 435.675
STARS 17 Aug 20:28:12 20:30:11 13° 300° (WNW) 20:32:11 437.465
AAUSAT CUBESAT 2 17 Aug 20:29:10 20:33:19 88° 257° (WSW) 20:37:32 437.432
ZACube-1 17 Aug 20:34:18 20:38:24 59° 74° (ENE) 20:42:29 437.345
DELFI C3 17 Aug 20:37:15 20:38:06 11° 61° (ENE) 20:38:56 145.870
AO-73 17 Aug 20:57:43 21:01:53 84° 260° (W) 21:06:01 145.935
O/OREOS (USA 219) 17 Aug 21:06:44 21:11:07 48° 252° (WSW) 21:15:29 437.305
Max Valier Satellite 17 Aug 21:08:45 21:11:02 16° 65° (ENE) 21:13:18 145.860
SEEDS 17 Aug 21:09:56 21:12:31 16° 269° (W) 21:15:08 437.485
UWE-3 17 Aug 21:23:28 21:26:48 22° 266° (W) 21:30:07 435.000/436.395/437.385
CUBEBUG 2 17 Aug 21:24:19 21:26:35 14° 269° (W) 21:28:49 437.445
STRAND 1 17 Aug 21:27:14 21:32:06 47° 290° (WNW) 21:36:58 437.568
RS-15 17 Aug 21:30:03 21:42:12 86° 238° (WSW) 21:53:40 29.354- 29.394
Oscar 11 17 Aug 21:47:32 21:51:25 33° 264° (W) 21:55:20 .
DELFI C3 17 Aug 22:08:16 22:12:15 76° 257° (WSW) 22:16:17 145.870
EO-88 17 Aug 22:09:19 22:12:54 65° 76° (ENE) 22:16:32 145.990 - 145.960
ZACube-1 17 Aug 22:13:22 22:15:04 12° 270° (W) 22:16:46 437.345
PRISM 17 Aug 22:16:23 22:17:56 12° 90° (E) 22:19:28 437.425
ESTCUBE 1 17 Aug 22:18:00 22:18:57 11° 58° (ENE) 22:19:55 437.505/2401.250
LO-87 17 Aug 22:20:12 22:21:35 12° 63° (ENE) 22:22:57 145.935 - 145.965
UNISAT 6 17 Aug 22:38:20 22:42:11 31° 96° (E) 22:46:03 437.425
Max Valier Satellite 17 Aug 22:41:11 22:44:34 37° 262° (W) 22:48:00 145.860
FO-29 17 Aug 22:42:16 22:48:05 72° 102° (ESE) 22:53:22 435.910
TIGRISAT 17 Aug 23:14:13 23:18:30 71° 102° (ESE) 23:22:49 435.000
SPROUT 17 Aug 23:16:37 23:16:43 10° 59° (ENE) 23:16:49 437.525
M-CUBED/EXP-1 PRIME 17 Aug 23:34:51 23:35:54 11° 92° (E) 23:36:54 437.505
RS-15 17 Aug 23:44:22 23:52:47 23° 261° (W) 00:00:56 29.354- 29.394
PCSat 17 Aug 23:48:26 23:53:39 49° 114° (ESE) 23:58:53 145.827
PRISM 17 Aug 23:49:30 23:53:36 62° 287° (WNW) 23:57:40 437.425
ESTCUBE 1 17 Aug 23:50:29 23:54:59 86° 78° (ENE) 23:59:33 437.505/2401.250
LO-87 17 Aug 23:51:03 23:54:34 51° 261° (W) 23:58:06 145.935 - 145.965
NANOSAT C BR1 17 Aug 23:58:40 23:59:28 10° 89° (E) 00:00:14 145.865
POLYITAN 1 17 Aug 23:59:04 00:00:47 12° 90° (E) 00:02:30 437.675
QB50P2 18 Aug 00:12:50 00:15:54 19° 93° (E) 00:18:57 145.880/145.840
VELOX 1 18 Aug 00:13:20 00:17:19 33° 68° (ENE) 00:21:20 145.980
EO-79 18 Aug 00:14:56 00:17:53 18° 93° (E) 00:20:50 145.935-145.965
UNISAT 6 18 Aug 00:15:16 00:18:47 25° 293° (WNW) 00:22:19 437.425
AIST 2D 18 Aug 00:25:41 00:29:13 61° 101° (E) 00:32:44 435.315
DX 1 18 Aug 00:28:06 00:30:40 16° 61° (ENE) 00:33:15 434.975-435.025
FO-29 18 Aug 00:28:42 00:32:26 18° 304° (NW) 00:35:58 435.910
SO-50 18 Aug 00:38:54 00:43:22 65° 122° (ESE) 00:47:51 436.795
SPROUT 18 Aug 00:47:39 00:51:55 90° 270° (W) 00:56:12 437.525
DUCHIFAT 1 18 Aug 00:48:39 00:52:27 33° 97° (E) 00:56:15 145.980
TIGRISAT 18 Aug 00:52:49 00:54:38 13° 299° (WNW) 00:56:28 435.000
BUGSAT 1 18 Aug 01:04:18 01:06:17 13° 91° (E) 01:08:16 437.445
M-CUBED/EXP-1 PRIME 18 Aug 01:06:24 01:10:55 79° 290° (WNW) 01:15:07 437.505
50 SAT 18 Aug 01:13:55 01:17:15 53° 74° (ENE) 01:20:36 437.505
NANOSAT C BR1 18 Aug 01:31:28 01:35:39 71° 285° (WNW) 01:39:48 145.865
PCSat 18 Aug 01:32:32 01:37:16 30° 314° (NW) 01:42:01 145.827
POLYITAN 1 18 Aug 01:32:49 01:36:58 62° 287° (WNW) 01:41:06 437.675
Gurwin Techsat 1B 18 Aug 01:43:28 01:45:31 12° 88° (E) 01:47:34 435.225
YUBILEINY 18 Aug 01:45:46 01:49:41 13° 53° (NE) 01:53:33 435.215
UKube-1 18 Aug 01:47:38 01:51:55 64° 73° (ENE) 01:56:14 .
QB50P2 18 Aug 01:47:55 01:51:50 38° 290° (WNW) 01:55:45 145.880/145.840
EO-79 18 Aug 01:49:52 01:53:49 40° 289° (WNW) 01:57:44 145.935-145.965
VELOX 1 18 Aug 01:50:06 01:53:47 25° 265° (W) 01:57:31 145.980
AIST 2D 18 Aug 02:01:48 02:01:54 10° 297° (WNW) 02:02:00 435.315
DX 1 18 Aug 02:02:03 02:06:23 59° 259° (W) 02:10:44 434.975-435.025
SO-50 18 Aug 02:20:51 02:24:15 20° 321° (NW) 02:27:39 436.795
DUCHIFAT 1 18 Aug 02:24:40 02:27:57 23° 294° (WNW) 02:31:13 145.980
BEESAT 18 Aug 02:34:41 02:38:32 25° 65° (ENE) 02:42:24 436.000
Oscar 19 18 Aug 02:34:51 02:39:59 55° 101° (E) 02:45:04 437.125/150
BUGSAT 1 18 Aug 02:38:03 02:41:57 51° 288° (WNW) 02:45:51 437.445
M-CUBED/EXP-1 PRIME 18 Aug 02:43:20 02:44:27 11° 309° (NW) 02:45:34 437.505
MOZHAYETS 4 18 Aug 02:48:36 02:52:21 26° 66° (ENE) 02:56:08
ITUPSAT 1 18 Aug 03:05:50 03:10:23 48° 70° (ENE) 03:14:58 437.325
AO-7 18 Aug 03:06:29 03:10:34 14° 87° (E) 03:14:38 .
Gurwin Techsat 1B 18 Aug 03:20:49 03:26:11 88° 282° (WNW) 03:31:29 435.225
UKube-1 18 Aug 03:26:31 03:28:22 12° 270° (W) 03:30:13 .
NO-84 18 Aug 03:30:26 03:33:17 83° 326° (NNW) 03:36:08 435.350 FM
YUBILEINY 18 Aug 03:39:58 03:48:37 62° 77° (ENE) 03:57:11 435.215
ITAMSAT 1 18 Aug 03:47:58 03:51:40 19° 92° (E) 03:55:19 435.822/435.867
BEESAT 18 Aug 04:11:41 04:16:06 38° 262° (W) 04:20:34 436.000
Oscar 19 18 Aug 04:15:02 04:18:54 22° 298° (WNW) 04:22:45 437.125/150
MOZHAYETS 4 18 Aug 04:25:15 04:29:23 34° 264° (W) 04:33:32
CUBESAT XI-V 18 Aug 04:35:30 04:40:05 65° 74° (ENE) 04:44:44 437.345
ITUPSAT 1 18 Aug 04:45:01 04:48:28 20° 267° (W) 04:51:55 437.325
AO-7 18 Aug 04:56:22 05:04:44 73° 106° (ESE) 05:13:01 .
KKS-1 18 Aug 04:59:48 05:04:11 57° 72° (ENE) 05:08:35 437.445
Gurwin Techsat 1B 18 Aug 05:02:43 05:05:20 14° 303° (WNW) 05:07:57 435.225
NO-84 18 Aug 05:09:16 05:11:04 15° 342° (NNW) 05:12:53 435.350 FM
ITAMSAT 1 18 Aug 05:26:24 05:31:28 56° 289° (WNW) 05:36:30 435.822/435.867
YUBILEINY 18 Aug 05:37:36 05:44:48 30° 278° (W) 05:51:59 435.215
STARS 18 Aug 05:47:36 05:51:59 76° 76° (ENE) 05:56:24 437.465
AO-85 18 Aug 06:10:14 06:13:18 22° 114° (ESE) 06:16:20 145.980
CUBESAT XI-V 18 Aug 06:15:30 06:17:54 14° 271° (W) 06:20:19 437.345
DOVE 4 18 Aug 06:19:40 06:24:09 44° 98° (E) 06:28:20 437.250
LilacSat-2 18 Aug 06:20:50 06:23:05 15° 91° (E) 06:25:18 437.200
XW-2D 18 Aug 06:28:50 06:31:27 17° 93° (E) 06:34:04 145.860 - 145.880
KKS-1 18 Aug 06:38:30 06:41:06 15° 269° (W) 06:43:40 437.445
BEESAT 3 18 Aug 06:39:21 06:43:20 70° 122° (ESE) 06:47:23 437.485
XW-2B 18 Aug 06:39:26 06:42:29 22° 94° (E) 06:45:31 145.730 - 145.750
BEESAT 2 18 Aug 06:46:19 06:49:44 27° 115° (ESE) 06:53:11 435.950
NUDT-PHONESAT 18 Aug 06:47:50 06:50:40 20° 94° (E) 06:53:29 437.300
NO-84 18 Aug 06:48:52 06:49:30 10° 4° (N) 06:50:07 435.350 FM
AO-7 18 Aug 06:49:58 06:56:49 30° 307° (NW) 07:03:38 .
PCSat 18 Aug 06:52:48 06:55:21 13° 32° (NNE) 06:57:55 145.827
XW-2C 18 Aug 06:57:56 07:01:31 36° 98° (E) 07:05:05 145.795 - 145.815
STRAND 1 18 Aug 07:05:45 07:10:26 38° 68° (ENE) 07:15:08 437.568
CUTE-I 18 Aug 07:12:13 07:17:18 44° 98° (E) 07:22:20 437.470
XW-2F 18 Aug 07:12:39 07:16:25 52° 100° (E) 07:20:09 145.980 - 146.000
STARS 18 Aug 07:27:45 07:28:51 11° 271° (W) 07:29:57 437.465
SO-50 18 Aug 07:29:12 07:32:06 16° 35° (NE) 07:35:00 436.795
KAITUO 1B 18 Aug 07:43:18 07:47:06 82° 286° (WNW) 07:50:54 145.475/437.950
AO-85 18 Aug 07:49:50 07:53:27 36° 311° (NW) 07:57:07 145.980
HO-68 18 Aug 07:52:57 07:59:28 36° 97° (E) 08:05:57 435.675
LilacSat-2 18 Aug 07:53:53 07:57:34 43° 288° (WNW) 08:01:14 437.200
CUTE 1.7 + AOD 2 18 Aug 07:56:22 08:00:13 31° 96° (E) 08:04:04 437.475
DOVE 4 18 Aug 07:58:03 08:01:29 21° 297° (WNW) 08:04:47 437.250
XW-2D 18 Aug 08:02:14 08:05:45 35° 289° (WNW) 08:09:16 145.860 - 145.880
AAUSAT CUBESAT 2 18 Aug 08:11:19 08:13:20 13° 90° (E) 08:15:20 437.432
XW-2B 18 Aug 08:13:20 08:16:39 28° 291° (WNW) 08:19:58 145.730 - 145.750
BEESAT 3 18 Aug 08:18:41 08:21:22 17° 321° (NW) 08:24:03 437.485
NUDT-PHONESAT 18 Aug 08:21:17 08:24:34 29° 290° (WNW) 08:27:50 437.300
BEESAT 2 18 Aug 08:23:44 08:27:22 32° 313° (NW) 08:31:04 435.950
ZACube-1 18 Aug 08:23:46 08:24:11 10° 88° (E) 08:24:36 437.345
NO-84 18 Aug 08:25:21 08:27:47 22° 25° (NNE) 08:30:21 435.350 FM
XW-2C 18 Aug 08:32:48 08:35:26 18° 294° (WNW) 08:38:04 145.795 - 145.815
PCSat 18 Aug 08:34:39 08:40:00 55° 54° (NE) 08:45:19 145.827
XW-2A 18 Aug 08:38:22 08:41:38 46° 99° (E) 08:44:55 145.665 - 145.685
AO-73 18 Aug 08:44:51 08:47:33 16° 92° (E) 08:50:16 145.935
STRAND 1 18 Aug 08:45:18 08:49:40 28° 265° (W) 08:54:04 437.568
XW-2F 18 Aug 08:48:15 08:50:06 13° 297° (WNW) 08:51:58 145.980 - 146.000
SEEDS 18 Aug 08:50:01 08:54:18 77° 102° (ESE) 08:58:33 437.485
CUTE-I 18 Aug 08:52:43 08:57:07 27° 296° (WNW) 09:01:29 437.470
FO-29 18 Aug 08:53:59 09:01:03 43° 67° (ENE) 09:07:32 435.910
PRISM 18 Aug 09:07:28 09:08:59 12° 60° (ENE) 09:10:30 437.425
SO-50 18 Aug 09:08:39 09:13:14 87° 56° (ENE) 09:17:50 436.795
UWE-3 18 Aug 09:09:57 09:14:08 60° 101° (E) 09:18:22 435.000/436.395/437.385
CUBEBUG 2 18 Aug 09:10:44 09:14:54 77° 284° (WNW) 09:19:09 437.445
CUTE 1.7 + AOD 2 18 Aug 09:32:24 09:35:55 25° 293° (WNW) 09:39:26 437.475
Oscar 11 18 Aug 09:32:41 09:36:47 39° 98° (E) 09:40:51 .
UNISAT 6 18 Aug 09:38:29 09:42:23 33° 69° (ENE) 09:46:15 437.425
HO-68 18 Aug 09:40:32 09:47:19 47° 295° (WNW) 09:54:04 435.675
O/OREOS (USA 219) 18 Aug 09:43:07 09:45:44 15° 99° (E) 09:48:22 437.305
AAUSAT CUBESAT 2 18 Aug 09:45:01 09:49:09 57° 286° (WNW) 09:53:14 437.432
DELFI C3 18 Aug 09:45:30 09:47:10 12° 90° (E) 09:48:48 145.870
RS-15 18 Aug 09:52:30 09:55:39 11° 91° (E) 09:58:46 29.354- 29.394
ZACube-1 18 Aug 09:56:42 10:00:57 76° 284° (WNW) 10:05:16 437.345
NO-84 18 Aug 10:02:17 10:05:21 55° 222° (SW) 10:08:40 435.350 FM
Max Valier Satellite 18 Aug 10:10:04 10:12:32 17° 93° (E) 10:15:00 145.860
XW-2A 18 Aug 10:12:47 10:13:59 11° 296° (WNW) 10:15:09 145.665 - 145.685
TIGRISAT 18 Aug 10:13:59 10:18:20 73° 74° (ENE) 10:22:37 435.000
PCSat 18 Aug 10:18:48 10:23:01 23° 253° (WSW) 10:27:12 145.827
M-CUBED/EXP-1 PRIME 18 Aug 10:19:43 10:23:01 20° 57° (ENE) 10:26:23 437.505
AO-73 18 Aug 10:19:56 10:24:01 47° 288° (WNW) 10:28:10 145.935
SEEDS 18 Aug 10:27:54 10:29:21 12° 299° (WNW) 10:30:49 437.485
FO-29 18 Aug 10:38:48 10:46:01 43° 263° (W) 10:52:42 435.910
PRISM 18 Aug 10:39:30 10:43:39 74° 256° (WSW) 10:47:51 437.425
UWE-3 18 Aug 10:47:57 10:50:07 14° 297° (WNW) 10:52:19 435.000/436.395/437.385
Tancredo 1 18 Aug 10:49:33 10:52:17 37° 141° (SE) 10:55:02 437.200
SO-50 18 Aug 10:51:28 10:53:00 12° 252° (WSW) 10:54:32 436.795
NANOSAT C BR1 18 Aug 10:52:35 10:53:32 11° 60° (ENE) 10:54:27 145.865
POLYITAN 1 18 Aug 10:53:31 10:55:13 12° 61° (ENE) 10:56:56 437.675
AIST 2D 18 Aug 11:01:31 11:04:28 26° 70° (ENE) 11:07:26 435.315
QB50P2 18 Aug 11:07:03 11:09:59 18° 64° (ENE) 11:12:54 145.880/145.840
ISS 18 Aug 11:08:06 11:10:25 18° 134° (SE) 11:12:43 437.550
EO-79 18 Aug 11:08:59 11:11:48 18° 64° (ENE) 11:14:37 145.935-145.965
Oscar 11 18 Aug 11:09:22 11:12:40 21° 294° (WNW) 11:15:58 .
EO-88 18 Aug 11:09:55 11:13:36 71° 102° (ESE) 11:17:15 145.990 - 145.960
UNISAT 6 18 Aug 11:15:38 11:19:09 24° 266° (W) 11:22:38 437.425
DELFI C3 18 Aug 11:18:21 11:22:17 55° 286° (WNW) 11:26:09 145.870
LO-87 18 Aug 11:18:45 11:19:25 10° 90° (E) 11:20:05 145.935 - 145.965
nSIGHT-1 18 Aug 11:19:53 11:22:35 24° 137° (SE) 11:25:16 .
O/OREOS (USA 219) 18 Aug 11:20:16 11:24:39 55° 297° (WNW) 11:29:04 437.305
HO-68 18 Aug 11:32:25 11:33:19 10° 316° (NW) 11:34:13 435.675
DUCHIFAT 1 18 Aug 11:41:42 11:45:20 30° 69° (ENE) 11:49:00 145.980
ESTCUBE 1 18 Aug 11:42:31 11:45:26 17° 91° (E) 11:48:20 437.505/2401.250
Max Valier Satellite 18 Aug 11:43:07 11:46:29 34° 289° (WNW) 11:49:50 145.860
M-CUBED/EXP-1 PRIME 18 Aug 11:52:38 11:56:59 53° 255° (WSW) 12:01:33 437.505
RS-15 18 Aug 11:53:24 12:05:08 57° 113° (ESE) 12:17:00 29.354- 29.394
TIGRISAT 18 Aug 11:54:25 11:55:29 11° 271° (W) 11:56:33 435.000
BUGSAT 1 18 Aug 11:55:55 11:57:45 13° 62° (ENE) 11:59:35 437.445
Oscar 19 18 Aug 12:17:07 12:19:39 14° 57° (ENE) 12:22:11 437.125/150
NANOSAT C BR1 18 Aug 12:24:23 12:28:35 82° 255° (WSW) 12:32:48 145.865
Tancredo 1 18 Aug 12:24:52 12:27:33 32° 339° (NNW) 12:30:14 437.200
POLYITAN 1 18 Aug 12:26:15 12:30:26 70° 258° (WSW) 12:34:39 437.675
SPROUT 18 Aug 12:33:18 12:35:26 14° 90° (E) 12:37:34 437.525
AIST 2D 18 Aug 12:35:07 12:37:40 19° 267° (W) 12:40:13 435.315
QB50P2 18 Aug 12:41:26 12:45:27 43° 261° (W) 12:49:29 145.880/145.840
EO-79 18 Aug 12:43:11 12:47:13 45° 261° (W) 12:51:17 145.935-145.965
ISS 18 Aug 12:43:19 12:46:35 66° 331° (NNW) 12:49:50 437.550
LO-87 18 Aug 12:49:42 12:53:09 50° 286° (WNW) 12:56:34 145.935 - 145.965
nSIGHT-1 18 Aug 12:55:36 12:58:47 51° 334° (NNW) 13:02:00 .
Gurwin Techsat 1B 18 Aug 13:04:57 13:09:09 25° 63° (ENE) 13:13:24 435.225
DUCHIFAT 1 18 Aug 13:17:34 13:21:00 25° 265° (W) 13:24:27 145.980
ESTCUBE 1 18 Aug 13:18:06 13:22:32 52° 288° (WNW) 13:26:57 437.505/2401.250
BEESAT 3 18 Aug 13:19:03 13:20:23 11° 33° (NNE) 13:21:41 437.485
BUGSAT 1 18 Aug 13:28:32 13:32:37 63° 259° (W) 13:36:40 437.445
VELOX 1 18 Aug 13:37:33 13:41:54 53° 100° (E) 13:46:12 145.980
DX 1 18 Aug 13:49:19 13:52:36 21° 94° (E) 13:55:52 434.975-435.025
Oscar 19 18 Aug 13:53:04 13:58:12 89° 255° (WSW) 14:03:25 437.125/150
Tancredo 1 18 Aug 14:01:15 14:03:22 18° 359° (N) 14:05:30 437.200
RS-15 18 Aug 14:05:51 14:17:52 55° 317° (NW) 14:29:54 29.354- 29.394
AO-7 18 Aug 14:06:18 14:13:02 28° 53° (NE) 14:19:46 .
50 SAT 18 Aug 14:06:35 14:09:49 40° 99° (E) 14:13:00 437.505
SPROUT 18 Aug 14:07:31 14:11:41 56° 287° (WNW) 14:15:50 437.525
ISS 18 Aug 14:20:46 14:23:29 23° 350° (N) 14:26:12 437.550
nSIGHT-1 18 Aug 14:33:03 14:35:41 22° 354° (N) 14:38:18 .
AO-85 18 Aug 14:38:23 14:42:16 34° 48° (NE) 14:46:24 145.980
Gurwin Techsat 1B 18 Aug 14:43:40 14:48:48 49° 260° (W) 14:53:58 435.225
YUBILEINY 18 Aug 14:52:23 14:55:50 13° 72° (ENE) 14:59:16 435.215
BEESAT 3 18 Aug 14:54:46 14:58:46 64° 53° (NE) 15:02:40 437.485
BEESAT 2 18 Aug 15:02:06 15:05:42 29° 46° (NE) 15:09:14 435.950
ITAMSAT 1 18 Aug 15:06:57 15:11:39 36° 67° (ENE) 15:16:22 435.822/435.867
ITUPSAT 1 18 Aug 15:07:38 15:08:27 10° 88° (E) 15:09:16 437.325
UKube-1 18 Aug 15:08:52 15:13:13 85° 284° (WNW) 15:17:31 .
VELOX 1 18 Aug 15:15:03 15:17:55 17° 298° (WNW) 15:20:48 145.980
DX 1 18 Aug 15:24:52 15:28:55 39° 291° (WNW) 15:32:57 434.975-435.025
Tancredo 1 18 Aug 15:36:38 15:39:14 29° 19° (NNE) 15:41:50 437.200
Oscar 19 18 Aug 15:36:48 15:38:16 11° 273° (W) 15:39:43 437.125/150
50 SAT 18 Aug 15:40:36 15:42:08 13° 296° (WNW) 15:43:39 437.505
